FW3241 Weather Reports


Display with metric or nautical units.
time (UTC)temp
F
wind
direction
speed
MPH
gust
MPH
rain 1hr
in
rain 24hr
in
rain mn
in
humidity
%
barometer
mb
20260510160106 62 27 0.0 3.0 0.00 0.00 0.00 38 1019.0
20260510154553 61 279 0.0 2.0 0.00 0.00 0.00 39 1019.0
20260510153055 60 276 0.0 4.0 0.00 0.00 0.00 45 1019.0
20260510151550 59 301 0.0 2.0 0.00 0.00 0.00 50 1018.9
20260510150045 58 277 0.0 1.0 0.00 0.00 0.00 51 1019.0
20260510144546 57 277 0.0 2.0 0.00 0.00 0.00 56 1019.0
20260510143049 57 277 0.0 1.0 0.00 0.00 0.00 56 1019.0
20260510141540 56 277 1.0 4.0 0.00 0.00 0.00 53 1019.0
20260510140032 56 272 0.0 3.0 0.00 0.00 0.00 51 1018.8
20260510134530 55 125 0.0 2.0 0.00 0.00 0.00 54 1018.9
20260510133033 54 113 0.0 1.0 0.00 0.00 0.00 57 1018.7
20260510131529 54 113 0.0 1.0 0.00 0.00 0.00 63 1018.8
20260510130022 53 113 0.0 0.0 0.00 0.00 0.00 63 1018.6
20260510124524 53 113 0.0 0.0 0.00 0.00 0.00 62 1018.4
20260510123019 52 113 0.0 0.0 0.00 0.00 0.00 59 1018.4
20260510121518 52 113 0.0 0.0 0.00 0.00 0.00 58 1018.1
20260510120017 52 113 0.0 0.0 0.00 0.00 0.00 59 1017.9
20260510114514 52 113 0.0 0.0 0.00 0.00 0.00 59 1017.7
20260510113014 52 113 0.0 0.0 0.00 0.00 0.00 60 1017.5
20260510111511 51 113 0.0 0.0 0.00 0.00 0.00 61 1017.3
20260510110014 51 113 0.0 0.0 0.00 0.00 0.00 62 1017.0
20260510104509 51 113 0.0 0.0 0.00 0.00 0.00 64 1016.7
20260510103006 51 113 0.0 0.0 0.00 0.00 0.00 64 1016.6
20260510101504 51 113 0.0 0.0 0.00 0.00 0.00 64 1016.4
20260510100002 51 113 0.0 0.0 0.00 0.00 0.00 65 1016.2
20260510094601 51 113 0.0 0.0 0.00 0.00 0.00 65 1016.2
20260510093109 51 113 0.0 0.0 0.00 0.00 0.00 64 1016.1
20260510091559 51 113 0.0 0.0 0.00 0.00 0.00 64 1016.0
20260510090056 51 113 0.0 0.0 0.00 0.00 0.00 66 1015.8
20260510084559 51 113 0.0 0.0 0.00 0.00 0.00 66 1015.6
20260510083055 51 113 0.0 0.0 0.00 0.00 0.00 67 1015.4
20260510081622 51 113 0.0 1.0 0.00 0.00 0.00 67 1015.5
20260510080056 51 113 0.0 2.0 0.00 0.00 0.00 66 1015.3
20260510074551 52 113 0.0 1.0 0.00 0.00 0.00 65 1015.1
20260510073058 52 113 0.0 1.0 0.00 0.00 0.00 64 1015.0
20260510071546 53 113 0.0 0.0 0.00 0.00 0.00 63 1014.8
20260510070045 53 113 0.0 0.0 0.00 0.00 0.00 62 1014.7
20260510064554 53 113 0.0 0.0 0.00 0.00 0.00 61 1014.7
20260510063046 53 113 0.0 0.0 0.00 0.00 0.00 60 1014.7
20260510061546 54 113 0.0 2.0 0.00 0.00 0.00 60 1014.8
20260510060047 54 113 0.0 0.0 0.00 0.00 0.00 60 1015.1
20260510054539 54 113 0.0 0.0 0.00 0.00 0.00 59 1015.4
20260510053043 54 113 0.0 0.0 0.00 0.00 0.00 60 1015.5
20260510051543 54 113 0.0 0.0 0.00 0.00 0.00 60 1015.7
20260510050036 54 113 0.0 2.0 0.00 0.00 0.00 60 1015.5
20260510044546 54 112 0.0 1.0 0.00 0.00 0.00 59 1015.5
20260510043042 54 112 0.0 0.0 0.00 0.00 0.00 60 1015.3
20260510041534 54 112 0.0 0.0 0.00 0.00 0.00 60 1015.2
20260510040039 54 112 0.0 2.0 0.00 0.00 0.00 60 1015.3
20260510034529 54 112 0.0 2.0 0.00 0.00 0.00 61 1015.5
20260510033047 54 112 0.0 0.0 0.00 0.00 0.00 62 1015.3
20260510031528 55 112 0.0 0.0 0.00 0.00 0.00 62 1015.6
20260510030032 55 112 0.0 0.0 0.00 0.00 0.00 61 1015.4
20260510024526 55 112 0.0 0.0 0.00 0.00 0.00 61 1015.2
20260510023026 55 112 0.0 0.0 0.00 0.00 0.00 60 1015.1
20260510021527 55 111 0.0 0.0 0.00 0.00 0.00 59 1015.3
20260510020027 55 111 0.0 1.0 0.00 0.00 0.00 59 1014.9
20260510014528 55 82 0.0 0.0 0.00 0.00 0.00 59 1014.6
20260510013024 55 82 0.0 1.0 0.00 0.00 0.00 60 1014.4
20260510011525 55 82 0.0 0.0 0.00 0.00 0.00 60 1014.2
20260510010027 56 82 0.0 0.0 0.00 0.00 0.00 59 1014.2
20260510004523 56 82 0.0 0.0 0.00 0.00 0.00 58 1013.9
20260510003024 56 82 0.0 0.0 0.00 0.00 0.00 58 1013.7
20260510001522 57 82 0.0 0.0 0.00 0.00 0.00 57 1013.6
20260510000021 57 82 0.0 2.0 0.00 0.00 0.00 57 1013.4
20260509234530 58 82 1.0 2.0 0.00 0.00 0.00 56 1013.1
20260509233021 58 88 1.0 2.0 0.00 0.00 0.00 57 1012.9
20260509231521 59 88 0.0 2.0 0.00 0.00 0.00 57 1012.7
20260509230022 60 88 1.0 2.0 0.00 0.00 0.00 56 1012.6
20260509224518 61 88 0.0 2.0 0.00 0.00 0.00 57 1012.6
20260509223017 62 88 0.0 2.0 0.00 0.00 0.00 56 1012.6
20260509221518 63 89 0.0 2.0 0.00 0.00 0.00 53 1012.5
20260509220017 64 89 0.0 1.0 0.00 0.00 0.00 52 1012.4
20260509214515 66 89 0.0 3.0 0.00 0.00 0.00 47 1012.3
20260509213015 66 220 0.0 3.0 0.00 0.00 0.00 39 1012.0
20260509211513 66 223 1.0 2.0 0.00 0.00 0.00 38 1011.8
20260509210018 66 235 0.0 3.0 0.00 0.00 0.00 42 1012.1
20260509204514 65 212 1.0 4.0 0.00 0.00 0.00 44 1012.0
20260509203016 66 238 2.0 5.0 0.00 0.00 0.00 42 1012.1
20260509201510 66 238 0.0 4.0 0.00 0.00 0.00 40 1011.8
20260509200011 67 202 0.0 3.0 0.00 0.00 0.00 42 1012.0
20260509194508 67 242 2.0 4.0 0.00 0.00 0.00 39 1012.0
20260509193008 67 248 2.0 5.0 0.00 0.00 0.00 41 1012.2
20260509191509 67 232 2.0 4.0 0.00 0.00 0.00 42 1012.4
20260509190014 67 205 0.0 3.0 0.00 0.00 0.00 42 1012.1
20260509184508 68 240 2.0 7.0 0.00 0.00 0.00 42 1012.0
20260509183004 68 191 1.0 5.0 0.00 0.00 0.00 41 1011.9
20260509181501 68 255 3.0 5.0 0.00 0.00 0.00 38 1012.3
20260509180059 67 249 2.0 7.0 0.00 0.00 0.00 41 1012.2
20260509174601 66 242 1.0 8.0 0.00 0.00 0.00 40 1012.1
20260509173106 66 207 0.0 7.0 0.00 0.00 0.00 41 1012.1
20260509171612 64 191 1.0 7.0 0.00 0.00 0.00 46 1012.3
20260509170046 63 198 1.0 5.0 0.00 0.00 0.00 47 1012.8
20260509164541 61 236 0.0 3.0 0.00 0.00 0.00 46 1013.0
20260509163038 59 195 1.0 4.0 0.00 0.00 0.00 48 1013.0
20260509161536 58 180 1.0 6.0 0.00 0.00 0.00 52 1013.0